START_TIME,STEP,MOV.,AL01,t_acc.,AL02,t_acc.,E37,t_acc.,H21,t_acc.
1979-07-16 00:00:34.500 ,0,0,0.,24.0,0.,24.0,0.,24.0,0.,24.0
1979-07-16 00:00:58.500 ,1,1,0.,24.0,0.,24.0,1.,24.0,0.,24.0
1979-07-16 00:01:22.500 ,1,0,0.,24.0,0.,24.0,1.,24.0,0.,24.0
1979-07-16 00:01:46.500 ,2,1,0.,24.0,1.,24.0,3.,24.0,0.,24.0
1979-07-16 00:02:10.490 ,2,0,0.,24.0,0.,24.0,2.,24.0,0.,24.0
1979-07-16 00:02:34.500 ,3,1,0.,24.0,0.,24.0,1.,24.0,0.,24.0
1979-07-16 00:02:58.500 ,3,0,0.,24.0,0.,24.0,0.,24.0,0.,24.0
1979-07-16 00:03:22.500 ,4,1,0.,24.0,0.,24.0,1.,24.0,0.,24.0
1979-07-16 00:03:46.500 ,4,0,1.,24.0,0.,24.0,2.,24.0,0.,24.0
1979-07-16 00:04:10.500 ,5,1,0.,24.0,0.,24.0,1.,24.0,0.,24.0
1979-07-16 00:04:34.500 ,5,0,1.,24.0,0.,24.0,0.,24.0,0.,24.0
1979-07-16 00:04:58.500 ,6,1,2.,24.0,0.,24.0,0.,24.0,0.,24.0
1979-07-16 00:05:22.500 ,6,0,1.,24.0,0.,24.0,0.,24.0,0.,24.0
1979-07-16 00:05:46.500 ,7,1,6.,24.0,0.,24.0,0.,24.0,0.,24.0
1979-07-16 00:06:10.490 ,7,0,24.,24.0,0.,24.0,0.,24.0,0.,24.0
1979-07-16 00:06:34.500 ,7,1,27.,24.0,0.,24.0,0.,24.0,0.,24.0
1979-07-16 00:06:58.500 ,7,0,43.,24.0,0.,24.0,0.,24.0,0.,24.0
1979-07-16 00:07:22.500 ,6,1,27.,24.0,0.,24.0,0.,24.0,0.,24.0
1979-07-16 00:07:46.500 ,0,0,,0,,0,,0,,0
1979-07-16 00:07:48.900 ,0,0,,0,,0,,0,,0
1979-07-16 00:07:49.500 ,0,0,,0,,0,,0,,0
1979-07-16 00:07:49.500 ,0,0,,0,,0,,0,,0
1979-07-16 00:07:50.100 ,0,0,,0,,0,,0,,0
1979-07-16 00:07:50.100 ,0,0,,0,,0,,0,,0
1979-07-16 00:07:50.700 ,0,0,,0,,0,,0,,0
1979-07-16 00:07:50.700 ,0,0,,0,,0,,0,,0
1979-07-16 00:07:51.300 ,0,0,,0,,0,,0,,0
1979-07-16 00:07:51.300 ,0,0,,0,,0,,0,,0
1979-07-16 00:07:51.900 ,0,0,,0,,0,,0,,0
1979-07-16 00:07:51.900 ,0,0,,0,,0,,0,,0
1979-07-16 00:07:48.900 ,0,0,,0,,0,,0,,0
1979-07-16 00:07:49.500 ,0,0,,0,,0,,0,,0
1979-07-16 00:07:49.500 ,0,0,,0,,0,,0,,0
1979-07-16 00:07:50.100 ,0,0,,0,,0,,0,,0
1979-07-16 00:07:50.100 ,0,0,,0,,0,,0,,0
1979-07-16 00:07:50.700 ,0,0,,0,,0,,0,,0
1979-07-16 00:07:50.700 ,0,0,,0,,0,,0,,0
1979-07-16 00:07:51.300 ,0,0,,0,,0,,0,,0
1979-07-16 00:07:51.300 ,0,0,,0,,0,,0,,0
1979-07-16 00:07:51.900 ,0,0,,0,,0,,0,,0
1979-07-16 00:07:51.900 ,0,0,,0,,0,,0,,0
1979-07-16 00:07:52.500 ,0,0,,0,,0,,0,,0
1979-07-16 00:07:52.500 ,0,0,,0,,0,,0,,0
1979-07-16 00:07:53.100 ,0,0,,0,,0,,0,,0
1979-07-16 00:07:53.100 ,0,0,,0,,0,,0,,0
1979-07-16 00:07:53.700 ,0,0,,0,,0,,0,,0
1979-07-16 00:07:53.700 ,0,0,,0,,0,,0,,0
1979-07-16 00:07:54.300 ,0,0,,0,,0,,0,,0
1979-07-16 00:07:54.300 ,0,0,,0,,0,,0,,0
1979-07-16 00:07:54.900 ,0,0,,0,,0,,0,,0
1979-07-16 00:07:54.900 ,0,0,,0,,0,,0,,0
1979-07-16 00:07:55.500 ,0,0,,0,,0,,0,,0
1979-07-16 00:07:55.500 ,0,0,,0,,0,,0,,0
1979-07-16 00:07:56.100 ,0,0,,0,,0,,0,,0
1979-07-16 00:07:56.100 ,0,0,,0,,0,,0,,0
1979-07-16 00:07:56.700 ,0,0,,0,,0,,0,,0
1979-07-16 00:07:56.700 ,0,0,0.,24.0,0.,24.0,0.,24.0,0.,24.0
1979-07-16 00:08:10.490 ,5,1,1.,24.0,0.,24.0,0.,24.0,0.,24.0
1979-07-16 00:08:34.490 ,5,0,0.,24.0,1.,24.0,1.,24.0,0.,24.0
1979-07-16 00:08:58.490 ,4,1,0.,24.0,0.,24.0,1.,24.0,0.,24.0
1979-07-16 00:09:22.490 ,4,0,0.,24.0,0.,24.0,0.,24.0,0.,24.0
1979-07-16 00:09:46.490 ,3,1,2.,24.0,1.,24.0,1.,24.0,0.,24.0
1979-07-16 00:10:10.490 ,3,0,0.,24.0,0.,24.0,0.,24.0,0.,24.0
1979-07-16 00:10:34.490 ,2,1,0.,24.0,0.,24.0,0.,24.0,0.,24.0
1979-07-16 00:10:58.490 ,2,0,0.,24.0,0.,24.0,0.,24.0,0.,24.0
1979-07-16 00:11:22.490 ,1,1,0.,24.0,0.,24.0,0.,24.0,0.,24.0
1979-07-16 00:11:46.490 ,1,0,0.,24.0,0.,24.0,1.,24.0,0.,24.0
1979-07-16 00:12:10.490 ,0,1,1.,24.0,0.,24.0,1.,24.0,0.,24.0
1979-07-16 00:12:34.490 ,0,0,1.,24.0,0.,24.0,0.,24.0,0.,24.0
1979-07-16 00:12:58.490 ,0,1,0.,24.0,0.,24.0,1.,24.0,0.,24.0
1979-07-16 00:13:22.490 ,0,0,1.,24.0,0.,24.0,0.,24.0,0.,24.0
1979-07-16 00:13:46.490 ,1,1,0.,24.0,0.,24.0,0.,24.0,0.,24.0
1979-07-16 00:14:10.490 ,1,0,0.,24.0,0.,24.0,1.,24.0,0.,24.0
1979-07-16 00:14:34.490 ,2,1,0.,24.0,0.,24.0,0.,24.0,0.,24.0
1979-07-16 00:14:58.490 ,2,0,0.,24.0,0.,24.0,2.,24.0,0.,24.0
1979-07-16 00:15:22.490 ,3,1,0.,24.0,1.,24.0,0.,24.0,0.,24.0
1979-07-16 00:15:46.490 ,3,0,0.,24.0,0.,24.0,0.,24.0,0.,24.0
1979-07-16 00:16:10.490 ,4,1,0.,24.0,0.,24.0,1.,24.0,0.,24.0
1979-07-16 00:16:34.490 ,4,0,0.,24.0,0.,24.0,0.,24.0,0.,24.0
1979-07-16 00:16:58.490 ,5,1,0.,24.0,1.,24.0,0.,24.0,0.,24.0
1979-07-16 00:17:22.490 ,5,0,1.,24.0,0.,24.0,0.,24.0,0.,24.0
1979-07-16 00:17:46.490 ,6,1,0.,24.0,0.,24.0,1.,24.0,0.,24.0
1979-07-16 00:18:10.490 ,6,0,0.,24.0,0.,24.0,0.,24.0,0.,24.0
1979-07-16 00:18:34.490 ,7,0,5.,24.0,0.,24.0,1.,24.0,0.,24.0
1979-07-16 00:18:58.490 ,7,0,32.,24.0,0.,24.0,1.,24.0,0.,24.0
1979-07-16 00:19:22.490 ,5,1,17.,24.0,0.,24.0,1.,24.0,0.,24.0
1979-07-16 00:19:46.490 ,1,1,0.,24.0,0.,24.0,0.,24.0,0.,24.0
1979-07-16 00:20:10.490 ,2,1,0.,24.0,0.,24.0,0.,24.0,0.,24.0
1979-07-16 00:20:34.490 ,6,1,1.,24.0,0.,24.0,1.,24.0,0.,24.0
1979-07-16 00:20:58.490 ,5,1,10.,24.0,1.,24.0,0.,24.0,0.,24.0
1979-07-16 00:21:22.490 ,1,1,0.,24.0,1.,24.0,1.,24.0,0.,24.0
1979-07-16 00:21:46.490 ,2,1,0.,24.0,0.,24.0,1.,24.0,0.,24.0
1979-07-16 00:22:10.490 ,6,1,0.,24.0,0.,24.0,0.,24.0,0.,24.0
1979-07-16 00:22:34.490 ,5,1,13.,24.0,0.,24.0,0.,24.0,0.,24.0
1979-07-16 00:22:58.490 ,1,1,1.,24.0,0.,24.0,1.,24.0,0.,24.0
1979-07-16 00:23:22.490 ,2,1,0.,24.0,0.,24.0,0.,24.0,0.,24.0
1979-07-16 00:23:46.490 ,6,1,1.,24.0,0.,24.0,2.,24.0,0.,24.0
1979-07-16 00:24:10.490 ,5,1,16.,24.0,0.,24.0,1.,24.0,0.,24.0
1979-07-16 00:24:34.490 ,1,1,0.,24.0,0.,24.0,1.,24.0,0.,24.0
1979-07-16 00:24:58.490 ,2,1,0.,24.0,0.,24.0,2.,24.0,0.,24.0
1979-07-16 00:25:22.490 ,6,1,0.,24.0,0.,24.0,2.,24.0,0.,24.0
1979-07-16 00:25:46.490 ,5,1,16.,24.0,0.,24.0,0.,24.0,0.,24.0
1979-07-16 00:26:10.490 ,1,1,0.,24.0,0.,24.0,0.,24.0,0.,24.0
1979-07-16 00:26:34.490 ,2,1,0.,24.0,0.,24.0,1.,24.0,0.,24.0
1979-07-16 00:26:58.490 ,6,1,0.,24.0,0.,24.0,2.,24.0,0.,24.0
1979-07-16 00:27:22.490 ,5,1,15.,24.0,0.,24.0,0.,24.0,0.,24.0
1979-07-16 00:27:46.490 ,1,1,0.,24.0,0.,24.0,2.,24.0,0.,24.0
1979-07-16 00:28:10.490 ,2,1,0.,24.0,0.,24.0,2.,24.0,0.,24.0
1979-07-16 00:28:34.490 ,6,1,0.,24.0,0.,24.0,2.,24.0,0.,24.0
1979-07-16 00:28:58.490 ,5,1,20.,24.0,0.,24.0,0.,24.0,0.,24.0
1979-07-16 00:29:22.490 ,1,1,0.,24.0,1.,24.0,0.,24.0,0.,24.0
1979-07-16 00:29:46.490 ,0,0,1.,24.0,0.,24.0,0.,24.0,0.,24.0
1979-07-16 00:30:10.490 ,0,0,0.,24.0,0.,24.0,1.,24.0,0.,24.0
1979-07-16 00:30:34.490 ,5,1,23.,24.0,0.,24.0,4.,24.0,0.,24.0
1979-07-16 00:30:58.490 ,5,0,0.,24.0,0.,24.0,2.,24.0,0.,24.0
1979-07-16 00:31:22.490 ,4,1,0.,24.0,0.,24.0,0.,24.0,0.,24.0
1979-07-16 00:31:46.490 ,4,0,1.,24.0,1.,24.0,2.,24.0,0.,24.0
1979-07-16 00:32:10.490 ,3,1,0.,24.0,0.,24.0,2.,24.0,0.,24.0
1979-07-16 00:32:34.490 ,3,0,0.,24.0,1.,24.0,1.,24.0,0.,24.0
1979-07-16 00:32:58.490 ,2,1,0.,24.0,2.,24.0,0.,24.0,0.,24.0
1979-07-16 00:33:22.490 ,2,0,1.,24.0,0.,24.0,0.,24.0,0.,24.0
1979-07-16 00:33:46.490 ,1,1,0.,24.0,0.,24.0,3.,24.0,0.,24.0
1979-07-16 00:34:10.490 ,1,0,0.,24.0,0.,24.0,3.,24.0,0.,24.0
1979-07-16 00:34:34.490 ,0,1,0.,24.0,0.,24.0,3.,24.0,0.,24.0
1979-07-16 00:34:58.490 ,0,0,1.,24.0,1.,24.0,0.,24.0,0.,24.0
1979-07-16 00:35:22.490 ,0,1,0.,24.0,0.,24.0,2.,24.0,0.,24.0
1979-07-16 00:35:46.490 ,0,0,0.,24.0,0.,24.0,3.,24.0,0.,24.0
1979-07-16 00:36:10.490 ,1,1,0.,24.0,0.,24.0,2.,24.0,0.,24.0
1979-07-16 00:36:34.490 ,1,0,0.,24.0,0.,24.0,1.,24.0,0.,24.0
1979-07-16 00:36:58.490 ,2,1,0.,24.0,0.,24.0,1.,24.0,0.,24.0
1979-07-16 00:37:22.490 ,2,0,0.,24.0,0.,24.0,1.,24.0,0.,24.0
1979-07-16 00:37:46.490 ,3,1,1.,24.0,0.,24.0,0.,24.0,0.,24.0
1979-07-16 00:38:10.490 ,3,0,0.,24.0,0.,24.0,2.,24.0,0.,24.0
1979-07-16 00:38:34.490 ,4,1,0.,24.0,0.,24.0,0.,24.0,0.,24.0
1979-07-16 00:38:58.490 ,4,0,0.,24.0,0.,24.0,1.,24.0,0.,24.0
1979-07-16 00:39:22.490 ,5,1,0.,24.0,0.,24.0,2.,24.0,0.,24.0
1979-07-16 00:39:46.490 ,5,0,0.,24.0,1.,24.0,0.,24.0,0.,24.0
1979-07-16 00:40:10.490 ,6,1,0.,24.0,1.,24.0,0.,24.0,0.,24.0
1979-07-16 00:40:34.490 ,6,0,0.,24.0,1.,24.0,2.,24.0,0.,24.0
1979-07-16 00:40:58.490 ,7,1,10.,24.0,0.,24.0,1.,24.0,0.,24.0
1979-07-16 00:41:22.490 ,7,0,31.,24.0,0.,24.0,0.,24.0,0.,24.0
1979-07-16 00:41:46.490 ,7,1,27.,24.0,0.,24.0,1.,24.0,0.,24.0
1979-07-16 00:42:10.490 ,7,0,43.,24.0,0.,24.0,0.,24.0,0.,24.0
1979-07-16 00:42:34.490 ,6,1,28.,24.0,0.,24.0,1.,24.0,0.,24.0
1979-07-16 00:42:58.490 ,6,0,0.,24.0,0.,24.0,1.,24.0,0.,24.0
1979-07-16 00:43:22.490 ,5,1,2.,24.0,0.,24.0,2.,24.0,0.,24.0
1979-07-16 00:43:46.490 ,5,0,0.,24.0,0.,24.0,4.,24.0,0.,24.0
1979-07-16 00:44:10.490 ,4,1,0.,24.0,0.,24.0,0.,24.0,0.,24.0
1979-07-16 00:44:34.490 ,4,0,0.,24.0,0.,24.0,2.,24.0,0.,24.0
1979-07-16 00:44:58.490 ,3,1,0.,24.0,0.,24.0,2.,24.0,0.,24.0
1979-07-16 00:45:22.490 ,3,0,2.,24.0,0.,24.0,3.,24.0,0.,24.0
1979-07-16 00:45:46.490 ,2,1,0.,24.0,0.,24.0,1.,24.0,0.,24.0
1979-07-16 00:46:10.490 ,2,0,0.,24.0,0.,24.0,1.,24.0,0.,24.0
1979-07-16 00:46:34.490 ,1,1,,0,,0,,0,,0
1979-07-16 00:46:58.490 ,1,0,0.,24.0,1.,24.0,1.,24.0,0.,24.0
1979-07-16 00:47:22.490 ,0,1,0.,24.0,0.,24.0,4.,24.0,0.,24.0
1979-07-16 00:47:46.490 ,0,0,1.,24.0,0.,24.0,2.,24.0,0.,24.0
1979-07-16 00:48:10.490 ,0,1,0.,24.0,0.,24.0,1.,24.0,0.,24.0
1979-07-16 00:48:34.490 ,0,0,0.,24.0,1.,24.0,4.,24.0,0.,24.0
1979-07-16 00:48:58.490 ,1,1,0.,24.0,0.,24.0,2.,24.0,0.,24.0
1979-07-16 00:49:22.490 ,1,0,0.,24.0,0.,24.0,2.,24.0,0.,24.0
1979-07-16 00:49:46.490 ,2,1,0.,24.0,2.,24.0,0.,24.0,0.,24.0
1979-07-16 00:50:10.490 ,2,0,2.,24.0,0.,24.0,3.,24.0,0.,24.0
1979-07-16 00:50:34.490 ,3,1,1.,24.0,0.,24.0,1.,24.0,0.,24.0
1979-07-16 00:50:58.490 ,3,0,0.,24.0,0.,24.0,0.,24.0,0.,24.0
1979-07-16 00:51:22.490 ,4,1,0.,24.0,0.,24.0,1.,24.0,0.,24.0
1979-07-16 00:51:46.490 ,4,0,0.,24.0,0.,24.0,2.,24.0,0.,24.0
1979-07-16 00:52:10.490 ,5,1,0.,24.0,0.,24.0,1.,24.0,0.,24.0
1979-07-16 00:52:34.490 ,5,0,0.,24.0,0.,24.0,1.,24.0,0.,24.0
1979-07-16 00:52:58.490 ,6,1,0.,24.0,1.,24.0,0.,24.0,0.,24.0
1979-07-16 00:53:22.490 ,6,0,0.,24.0,0.,24.0,0.,24.0,0.,24.0
1979-07-16 00:53:46.490 ,7,1,8.,24.0,0.,24.0,0.,24.0,0.,24.0
1979-07-16 00:54:10.490 ,7,0,35.,24.0,0.,24.0,0.,24.0,0.,24.0
1979-07-16 00:54:34.490 ,0,0,25.,24.0,0.,24.0,0.,24.0,0.,24.0
1979-07-16 00:54:58.490 ,0,0,38.,24.0,0.,24.0,1.,24.0,0.,24.0
1979-07-16 00:55:22.490 ,6,1,36.,24.0,0.,24.0,1.,24.0,0.,24.0
1979-07-16 00:55:46.490 ,6,0,0.,24.0,0.,24.0,2.,24.0,0.,24.0
1979-07-16 00:56:10.490 ,5,1,0.,24.0,0.,24.0,1.,24.0,0.,24.0
1979-07-16 00:56:34.490 ,5,0,0.,24.0,0.,24.0,1.,24.0,0.,24.0
1979-07-16 00:56:58.490 ,4,1,1.,24.0,1.,24.0,1.,24.0,0.,24.0
1979-07-16 00:57:22.490 ,4,0,0.,24.0,1.,24.0,1.,24.0,0.,24.0
1979-07-16 00:57:46.490 ,3,1,2.,24.0,0.,24.0,1.,24.0,0.,24.0
1979-07-16 00:58:10.490 ,3,0,1.,24.0,0.,24.0,0.,24.0,0.,24.0
1979-07-16 00:58:34.490 ,2,1,1.,24.0,0.,24.0,0.,24.0,0.,24.0
1979-07-16 00:58:58.490 ,2,0,0.,24.0,0.,24.0,0.,24.0,0.,24.0
1979-07-16 00:59:22.490 ,1,1,0.,24.0,0.,24.0,3.,24.0,0.,24.0
1979-07-16 00:59:46.490 ,1,0,1.,24.0,0.,24.0,0.,24.0,0.,24.0
1979-07-16 01:00:10.490 ,0,1,0.,24.0,0.,24.0,0.,24.0,0.,24.0
1979-07-16 01:00:34.490 ,0,0,0.,24.0,0.,24.0,1.,24.0,0.,24.0
1979-07-16 01:00:58.490 ,0,1,0.,24.0,0.,24.0,2.,24.0,0.,24.0
1979-07-16 01:01:22.490 ,0,0,0.,24.0,2.,24.0,0.,24.0,0.,24.0
1979-07-16 01:01:46.490 ,1,1,0.,24.0,0.,24.0,0.,24.0,0.,24.0
1979-07-16 01:02:10.490 ,1,0,3.,24.0,0.,24.0,0.,24.0,0.,24.0
1979-07-16 01:02:34.490 ,2,1,0.,24.0,0.,24.0,0.,24.0,0.,24.0
1979-07-16 01:02:58.490 ,2,0,0.,24.0,1.,24.0,2.,24.0,0.,24.0
1979-07-16 01:03:22.490 ,3,1,0.,24.0,0.,24.0,1.,24.0,0.,24.0
1979-07-16 01:03:46.490 ,3,0,1.,24.0,0.,24.0,0.,24.0,0.,24.0
1979-07-16 01:04:10.490 ,4,1,0.,24.0,0.,24.0,0.,24.0,0.,24.0
1979-07-16 01:04:34.490 ,4,0,1.,24.0,0.,24.0,0.,24.0,0.,24.0
1979-07-16 01:04:58.490 ,5,1,3.,24.0,0.,24.0,2.,24.0,0.,24.0
1979-07-16 01:05:22.490 ,5,0,2.,24.0,2.,24.0,0.,24.0,0.,24.0
1979-07-16 01:05:46.490 ,6,1,0.,24.0,0.,24.0,0.,24.0,0.,24.0
1979-07-16 01:06:10.490 ,6,0,0.,24.0,0.,24.0,1.,24.0,0.,24.0
1979-07-16 01:06:34.490 ,7,0,7.,24.0,0.,24.0,4.,24.0,0.,24.0
1979-07-16 01:06:58.490 ,7,0,24.,24.0,0.,24.0,0.,24.0,0.,24.0
1979-07-16 01:07:22.490 ,5,1,10.,24.0,1.,24.0,3.,24.0,0.,24.0
1979-07-16 01:07:46.490 ,1,1,0.,24.0,0.,24.0,2.,24.0,0.,24.0
1979-07-16 01:08:10.490 ,2,1,0.,24.0,0.,24.0,2.,24.0,0.,24.0
1979-07-16 01:08:34.490 ,6,1,0.,24.0,0.,24.0,2.,24.0,0.,24.0
1979-07-16 01:08:58.490 ,5,1,16.,24.0,1.,24.0,1.,24.0,0.,24.0
1979-07-16 01:09:22.490 ,1,1,0.,24.0,0.,24.0,0.,24.0,0.,24.0
1979-07-16 01:09:46.490 ,2,1,0.,24.0,0.,24.0,0.,24.0,0.,24.0
1979-07-16 01:10:10.490 ,6,1,1.,24.0,0.,24.0,3.,24.0,0.,24.0
1979-07-16 01:10:34.490 ,5,1,15.,24.0,0.,24.0,0.,24.0,0.,24.0
1979-07-16 01:10:58.490 ,1,1,1.,24.0,0.,24.0,1.,24.0,0.,24.0
1979-07-16 01:11:22.490 ,2,1,1.,24.0,0.,24.0,1.,24.0,0.,24.0
1979-07-16 01:11:46.490 ,6,1,0.,24.0,0.,24.0,4.,24.0,0.,24.0
1979-07-16 01:12:10.490 ,5,1,9.,24.0,0.,24.0,2.,24.0,0.,24.0
1979-07-16 01:12:34.490 ,1,1,2.,24.0,1.,24.0,0.,24.0,0.,24.0
1979-07-16 01:12:58.490 ,2,1,0.,24.0,0.,24.0,1.,24.0,0.,24.0
1979-07-16 01:13:22.490 ,6,1,1.,24.0,0.,24.0,1.,24.0,0.,24.0
1979-07-16 01:13:46.490 ,5,1,10.,24.0,0.,24.0,0.,24.0,0.,24.0
1979-07-16 01:14:10.490 ,1,1,2.,24.0,1.,24.0,0.,24.0,0.,24.0
1979-07-16 01:14:34.490 ,2,1,0.,24.0,0.,24.0,0.,24.0,0.,24.0
1979-07-16 01:14:58.490 ,6,1,1.,24.0,0.,24.0,0.,24.0,0.,24.0
1979-07-16 01:15:22.490 ,5,1,23.,24.0,0.,24.0,0.,24.0,0.,24.0
1979-07-16 01:15:46.490 ,1,1,1.,24.0,0.,24.0,2.,24.0,0.,24.0
1979-07-16 01:16:10.490 ,2,1,0.,24.0,1.,24.0,4.,24.0,0.,24.0
1979-07-16 01:16:34.490 ,6,1,0.,24.0,0.,24.0,2.,24.0,0.,24.0
1979-07-16 01:16:58.490 ,5,1,15.,24.0,0.,24.0,0.,24.0,0.,24.0
1979-07-16 01:17:22.490 ,1,1,1.,24.0,0.,24.0,2.,24.0,0.,24.0
1979-07-16 01:17:46.490 ,0,0,2.,24.0,0.,24.0,0.,24.0,0.,24.0
1979-07-16 01:18:10.490 ,0,0,1.,24.0,0.,24.0,1.,24.0,0.,24.0
1979-07-16 01:18:34.490 ,5,1,16.,24.0,0.,24.0,0.,24.0,0.,24.0
1979-07-16 01:18:58.490 ,5,0,0.,24.0,0.,24.0,1.,24.0,0.,24.0
1979-07-16 01:19:22.490 ,4,1,2.,24.0,1.,24.0,0.,24.0,0.,24.0
1979-07-16 01:19:46.490 ,4,0,1.,24.0,0.,24.0,0.,24.0,0.,24.0
1979-07-16 01:20:10.490 ,3,1,0.,24.0,0.,24.0,3.,24.0,0.,24.0
1979-07-16 01:20:34.490 ,3,0,0.,24.0,0.,24.0,0.,24.0,0.,24.0
1979-07-16 01:20:58.490 ,2,1,0.,24.0,0.,24.0,1.,24.0,0.,24.0
1979-07-16 01:21:22.490 ,0,0,1.,24.0,1.,24.0,0.,24.0,0.,24.0
1979-07-16 01:22:08.090 ,0,0,,0,,0,,0,,0
1979-07-16 01:22:10.490 ,0,0,0.,24.0,0.,24.0,0.,24.0,0.,24.0
1979-07-16 01:22:34.490 ,0,1,0.,24.0,1.,24.0,1.,24.0,0.,24.0
1979-07-16 01:22:58.490 ,0,0,0.,24.0,0.,24.0,1.,24.0,0.,24.0
1979-07-16 01:23:22.490 ,0,1,0.,24.0,0.,24.0,4.,24.0,0.,24.0
1979-07-16 01:23:46.490 ,0,0,0.,24.0,0.,24.0,2.,24.0,0.,24.0
1979-07-16 01:24:10.490 ,1,1,0.,24.0,0.,24.0,0.,24.0,0.,24.0
1979-07-16 01:24:34.490 ,1,0,1.,24.0,1.,24.0,1.,24.0,0.,24.0
1979-07-16 01:24:58.490 ,2,1,1.,24.0,0.,24.0,3.,24.0,0.,24.0
1979-07-16 01:25:22.490 ,2,0,1.,24.0,1.,24.0,1.,24.0,0.,24.0
1979-07-16 01:25:46.490 ,3,1,0.,24.0,0.,24.0,3.,24.0,0.,24.0
1979-07-16 01:26:10.490 ,3,0,0.,24.0,0.,24.0,1.,24.0,0.,24.0
1979-07-16 01:26:34.490 ,4,1,1.,24.0,2.,24.0,0.,24.0,0.,24.0
1979-07-16 01:26:58.490 ,4,0,0.,24.0,0.,24.0,1.,24.0,0.,24.0
1979-07-16 01:27:22.490 ,5,1,1.,24.0,0.,24.0,0.,24.0,0.,24.0
1979-07-16 01:27:46.490 ,5,0,0.,24.0,1.,24.0,2.,24.0,0.,24.0
1979-07-16 01:28:10.490 ,6,1,1.,24.0,0.,24.0,1.,24.0,0.,24.0
1979-07-16 01:28:34.490 ,6,0,0.,24.0,0.,24.0,5.,24.0,0.,24.0
1979-07-16 01:28:58.490 ,7,1,12.,24.0,0.,24.0,2.,24.0,0.,24.0
1979-07-16 01:29:22.490 ,7,0,26.,24.0,0.,24.0,0.,24.0,0.,24.0
1979-07-16 01:30:34.490 ,0,0,29.,24.0,0.,24.0,2.,24.0,0.,24.0
1979-07-16 01:30:58.490 ,0,0,0.,24.0,2.,24.0,1.,24.0,0.,24.0
1979-07-16 01:31:22.490 ,0,0,1.,24.0,0.,24.0,0.,24.0,0.,24.0
1979-07-16 01:31:46.490 ,0,0,,0,,0,,0,,0
1979-07-16 01:32:10.490 ,0,0,3.,24.0,0.,24.0,1.,24.0,0.,24.0
1979-07-16 01:32:34.490 ,0,0,1.,24.0,0.,24.0,3.,24.0,0.,24.0
1979-07-16 01:32:58.490 ,0,0,0.,24.0,0.,24.0,1.,24.0,0.,24.0
1979-07-16 01:33:22.490 ,0,0,1.,24.0,0.,24.0,3.,24.0,0.,24.0
1979-07-16 01:33:46.490 ,0,0,1.,24.0,0.,24.0,2.,24.0,0.,24.0
1979-07-16 01:34:10.490 ,0,0,0.,24.0,0.,24.0,3.,24.0,0.,24.0
1979-07-16 01:35:23.090 ,0,0,,0,,0,,0,,0
1979-07-16 01:35:46.490 ,0,0,1.,24.0,0.,24.0,1.,24.0,0.,24.0
1979-07-16 01:36:10.490 ,0,1,2.,24.0,0.,24.0,1.,24.0,0.,24.0
1979-07-16 01:36:34.490 ,0,0,0.,24.0,0.,24.0,0.,24.0,0.,24.0
1979-07-16 01:36:58.490 ,1,1,0.,24.0,0.,24.0,0.,24.0,0.,24.0
1979-07-16 01:37:22.490 ,0,0,0.,24.0,0.,24.0,1.,24.0,0.,24.0
1979-07-16 01:37:46.490 ,0,0,1.,24.0,0.,24.0,1.,24.0,0.,24.0
1979-07-16 01:38:10.490 ,0,0,1.,24.0,0.,24.0,0.,24.0,0.,24.0
1979-07-16 01:38:34.490 ,0,0,0.,24.0,0.,24.0,0.,24.0,0.,24.0
1979-07-16 01:38:58.490 ,0,0,0.,24.0,0.,24.0,1.,24.0,0.,24.0
1979-07-16 01:39:22.490 ,4,1,0.,24.0,0.,24.0,0.,24.0,0.,24.0
1979-07-16 01:39:46.490 ,4,0,1.,24.0,0.,24.0,1.,24.0,0.,24.0
1979-07-16 01:40:10.490 ,0,0,,0,,0,,0,,0
1979-07-16 01:40:34.490 ,0,0,,0,,0,,0,,0
1979-07-16 01:40:58.490 ,6,1,1.,24.0,0.,24.0,1.,24.0,0.,24.0
1979-07-16 01:41:22.490 ,6,0,0.,24.0,0.,24.0,1.,24.0,0.,24.0
1979-07-16 01:41:46.490 ,0,0,5.,24.0,0.,24.0,0.,24.0,0.,24.0
1979-07-16 01:42:10.490 ,0,0,40.,24.0,0.,24.0,4.,24.0,0.,24.0
1979-07-16 01:42:34.490 ,0,0,33.,24.0,1.,24.0,1.,24.0,0.,24.0
1979-07-16 01:42:58.490 ,0,0,27.,24.0,0.,24.0,0.,24.0,0.,24.0
1979-07-16 01:43:22.490 ,6,1,31.,24.0,0.,24.0,2.,24.0,0.,24.0
1979-07-16 01:43:46.490 ,6,0,0.,24.0,0.,24.0,4.,24.0,0.,24.0
1979-07-16 01:44:10.490 ,5,1,0.,24.0,0.,24.0,0.,24.0,0.,24.0
1979-07-16 01:44:34.490 ,0,0,0.,24.0,1.,24.0,0.,24.0,0.,24.0
1979-07-16 01:44:59.090 ,0,0,2.,24.0,0.,24.0,1.,24.0,0.,24.0
1979-07-16 01:45:22.490 ,0,0,0.,24.0,0.,24.0,2.,24.0,0.,24.0
1979-07-16 01:45:46.490 ,3,1,1.,24.0,0.,24.0,2.,24.0,0.,24.0
1979-07-16 01:46:10.490 ,3,0,0.,24.0,0.,24.0,1.,24.0,0.,24.0
1979-07-16 01:46:34.490 ,2,1,1.,24.0,1.,24.0,2.,24.0,0.,24.0
1979-07-16 01:46:58.490 ,2,0,1.,24.0,0.,24.0,1.,24.0,0.,24.0
1979-07-16 01:47:22.490 ,0,0,,0,,0,,0,,0
1979-07-16 01:47:46.490 ,0,0,1.,24.0,2.,24.0,3.,24.0,0.,24.0
1979-07-16 01:48:10.490 ,0,1,0.,24.0,0.,24.0,2.,24.0,0.,24.0
1979-07-16 01:48:34.490 ,0,0,0.,24.0,0.,24.0,0.,24.0,0.,24.0
1979-07-16 01:48:58.490 ,0,1,3.,24.0,1.,24.0,0.,24.0,0.,24.0
1979-07-16 01:49:22.490 ,0,0,1.,24.0,0.,24.0,0.,24.0,0.,24.0
1979-07-16 01:49:46.490 ,1,1,1.,24.0,2.,24.0,2.,24.0,0.,24.0
1979-07-16 01:50:10.490 ,1,0,0.,24.0,0.,24.0,0.,24.0,0.,24.0
1979-07-16 01:50:34.490 ,2,1,1.,24.0,0.,24.0,1.,24.0,0.,24.0
1979-07-16 01:50:58.490 ,2,0,0.,24.0,0.,24.0,2.,24.0,0.,24.0
1979-07-16 01:51:22.490 ,3,1,1.,24.0,1.,24.0,1.,24.0,0.,24.0
1979-07-16 01:51:46.490 ,3,0,0.,24.0,0.,24.0,1.,24.0,0.,24.0
1979-07-16 01:52:10.490 ,4,1,1.,24.0,1.,24.0,2.,24.0,0.,24.0
1979-07-16 01:52:34.490 ,4,0,1.,24.0,0.,24.0,0.,24.0,0.,24.0
1979-07-16 01:52:58.490 ,5,1,1.,24.0,0.,24.0,0.,24.0,0.,24.0
1979-07-16 01:53:22.490 ,5,0,0.,24.0,0.,24.0,1.,24.0,0.,24.0
1979-07-16 01:53:46.490 ,6,1,1.,24.0,0.,24.0,3.,24.0,0.,24.0
1979-07-16 01:54:10.490 ,6,0,0.,24.0,0.,24.0,0.,24.0,0.,24.0
1979-07-16 01:54:34.490 ,7,0,8.,24.0,0.,24.0,0.,24.0,0.,24.0
1979-07-16 01:54:58.490 ,7,0,32.,24.0,0.,24.0,2.,24.0,0.,24.0
1979-07-16 01:55:22.490 ,5,1,11.,24.0,0.,24.0,4.,24.0,0.,24.0
1979-07-16 01:55:46.490 ,1,1,0.,24.0,0.,24.0,1.,24.0,0.,24.0
1979-07-16 01:56:10.490 ,2,1,0.,24.0,0.,24.0,0.,24.0,0.,24.0
1979-07-16 01:56:34.490 ,6,1,1.,24.0,0.,24.0,1.,24.0,0.,24.0
1979-07-16 01:56:58.490 ,5,1,17.,24.0,0.,24.0,0.,24.0,0.,24.0
1979-07-16 01:57:22.490 ,1,1,1.,24.0,0.,24.0,0.,24.0,0.,24.0
1979-07-16 01:57:46.490 ,2,1,0.,24.0,1.,24.0,1.,24.0,0.,24.0
1979-07-16 01:58:10.490 ,6,1,1.,24.0,0.,24.0,0.,24.0,0.,24.0
1979-07-16 01:58:34.490 ,5,1,17.,24.0,0.,24.0,1.,24.0,0.,24.0
1979-07-16 01:58:58.490 ,1,1,0.,24.0,1.,24.0,0.,24.0,0.,24.0
1979-07-16 01:59:22.490 ,2,1,0.,24.0,0.,24.0,2.,24.0,0.,24.0
1979-07-16 01:59:46.490 ,6,1,1.,24.0,1.,24.0,0.,24.0,0.,24.0
1979-07-16 02:00:10.490 ,5,1,13.,24.0,1.,24.0,1.,24.0,0.,24.0
1979-07-16 02:00:34.490 ,1,1,1.,24.0,0.,24.0,2.,24.0,0.,24.0
1979-07-16 02:00:58.490 ,2,1,0.,24.0,0.,24.0,2.,24.0,0.,24.0
1979-07-16 02:01:22.490 ,6,1,0.,24.0,0.,24.0,4.,24.0,0.,24.0
1979-07-16 02:01:46.490 ,5,1,13.,24.0,0.,24.0,1.,24.0,0.,24.0
1979-07-16 02:02:10.490 ,1,1,0.,24.0,1.,24.0,0.,24.0,0.,24.0
1979-07-16 02:02:34.490 ,2,1,1.,24.0,0.,24.0,1.,24.0,0.,24.0
1979-07-16 02:02:58.490 ,6,1,0.,24.0,0.,24.0,0.,24.0,0.,24.0
1979-07-16 02:03:22.490 ,5,1,10.,24.0,0.,24.0,1.,24.0,0.,24.0
1979-07-16 02:03:46.490 ,1,1,0.,24.0,1.,24.0,1.,24.0,0.,24.0
1979-07-16 02:04:10.490 ,2,1,0.,24.0,0.,24.0,1.,24.0,0.,24.0
1979-07-16 02:04:34.490 ,6,1,1.,24.0,0.,24.0,0.,24.0,0.,24.0
1979-07-16 02:04:58.490 ,5,1,16.,24.0,1.,24.0,0.,24.0,0.,24.0
1979-07-16 02:05:22.490 ,1,1,0.,24.0,0.,24.0,0.,24.0,0.,24.0
1979-07-16 02:05:46.490 ,0,0,1.,24.0,0.,24.0,1.,24.0,0.,24.0
1979-07-16 02:06:10.490 ,0,0,1.,24.0,0.,24.0,0.,24.0,0.,24.0
1979-07-16 02:06:34.490 ,5,1,16.,24.0,0.,24.0,2.,24.0,0.,24.0
1979-07-16 02:06:58.490 ,5,0,0.,24.0,0.,24.0,1.,24.0,0.,24.0
1979-07-16 02:07:22.490 ,4,1,0.,24.0,0.,24.0,1.,24.0,0.,24.0
1979-07-16 02:07:46.490 ,4,0,0.,24.0,0.,24.0,0.,24.0,0.,24.0
1979-07-16 02:08:10.490 ,3,1,0.,24.0,2.,24.0,0.,24.0,0.,24.0
1979-07-16 02:08:34.490 ,3,0,0.,24.0,0.,24.0,1.,24.0,0.,24.0
1979-07-16 02:08:58.490 ,2,1,0.,24.0,0.,24.0,2.,24.0,0.,24.0
1979-07-16 02:09:22.490 ,2,0,2.,24.0,0.,24.0,2.,24.0,0.,24.0
1979-07-16 02:09:46.490 ,1,1,0.,24.0,1.,24.0,1.,24.0,0.,24.0
1979-07-16 02:10:10.490 ,1,0,2.,24.0,0.,24.0,1.,24.0,0.,24.0
1979-07-16 02:10:34.490 ,0,1,1.,24.0,1.,24.0,1.,24.0,0.,24.0
1979-07-16 02:10:58.490 ,0,0,0.,24.0,0.,24.0,0.,24.0,0.,24.0
1979-07-16 02:11:22.490 ,0,1,0.,24.0,0.,24.0,1.,24.0,0.,24.0
1979-07-16 02:11:46.490 ,0,0,0.,24.0,0.,24.0,1.,24.0,0.,24.0
1979-07-16 02:12:10.490 ,1,1,0.,24.0,0.,24.0,1.,24.0,0.,24.0
1979-07-16 02:12:34.490 ,1,0,0.,24.0,0.,24.0,3.,24.0,0.,24.0
1979-07-16 02:12:58.490 ,2,1,1.,24.0,1.,24.0,1.,24.0,0.,24.0
1979-07-16 02:13:22.490 ,2,0,0.,24.0,0.,24.0,0.,24.0,0.,24.0
1979-07-16 02:13:46.490 ,3,1,0.,24.0,0.,24.0,3.,24.0,0.,24.0
1979-07-16 02:14:10.490 ,3,0,0.,24.0,0.,24.0,0.,24.0,0.,24.0
1979-07-16 02:14:34.490 ,4,1,1.,24.0,0.,24.0,0.,24.0,0.,24.0
1979-07-16 02:14:58.490 ,4,0,1.,24.0,0.,24.0,1.,24.0,0.,24.0
1979-07-16 02:15:22.490 ,5,1,1.,24.0,1.,24.0,1.,24.0,0.,24.0
1979-07-16 02:15:46.490 ,5,0,0.,24.0,0.,24.0,0.,24.0,0.,24.0
1979-07-16 02:16:10.490 ,6,1,0.,24.0,0.,24.0,0.,24.0,0.,24.0
1979-07-16 02:16:34.490 ,6,0,1.,24.0,0.,24.0,1.,24.0,0.,24.0
1979-07-16 02:16:58.490 ,7,1,5.,24.0,0.,24.0,1.,24.0,0.,24.0
1979-07-16 02:17:22.490 ,7,0,47.,24.0,0.,24.0,1.,24.0,0.,24.0
1979-07-16 02:17:46.490 ,7,1,30.,24.0,0.,24.0,2.,24.0,0.,24.0
1979-07-16 02:18:10.490 ,7,0,22.,24.0,0.,24.0,0.,24.0,0.,24.0
1979-07-16 02:18:34.490 ,6,1,23.,24.0,1.,24.0,1.,24.0,0.,24.0
1979-07-16 02:18:58.490 ,6,0,2.,24.0,0.,24.0,0.,24.0,0.,24.0
1979-07-16 02:20:10.490 ,0,0,0.,24.0,0.,24.0,2.,24.0,0.,24.0
1979-07-16 02:20:34.490 ,0,0,0.,24.0,0.,24.0,0.,24.0,0.,24.0
1979-07-16 02:20:58.490 ,3,1,2.,24.0,0.,24.0,2.,24.0,0.,24.0
1979-07-16 02:21:22.490 ,3,0,1.,24.0,0.,24.0,0.,24.0,0.,24.0
1979-07-16 02:21:46.490 ,2,1,1.,24.0,1.,24.0,2.,24.0,0.,24.0
1979-07-16 02:22:10.490 ,2,0,0.,24.0,0.,24.0,2.,24.0,0.,24.0
1979-07-16 02:22:34.490 ,1,1,0.,24.0,0.,24.0,1.,24.0,0.,24.0
1979-07-16 02:22:58.490 ,1,0,1.,24.0,1.,24.0,2.,24.0,0.,24.0
1979-07-16 02:23:22.490 ,0,1,0.,24.0,1.,24.0,2.,24.0,0.,24.0
1979-07-16 02:23:46.490 ,0,0,1.,24.0,0.,24.0,3.,24.0,0.,24.0
1979-07-16 02:24:10.490 ,0,1,0.,24.0,0.,24.0,3.,24.0,0.,24.0
1979-07-16 02:24:34.490 ,0,0,0.,24.0,0.,24.0,2.,24.0,0.,24.0
1979-07-16 02:24:58.490 ,1,1,0.,24.0,0.,24.0,2.,24.0,0.,24.0
1979-07-16 02:25:22.490 ,1,0,0.,24.0,0.,24.0,4.,24.0,0.,24.0
1979-07-16 02:25:46.490 ,2,1,1.,24.0,1.,24.0,1.,24.0,0.,24.0
1979-07-16 02:26:10.490 ,2,0,0.,24.0,0.,24.0,0.,24.0,0.,24.0
1979-07-16 02:26:34.490 ,3,1,2.,24.0,0.,24.0,1.,24.0,0.,24.0
1979-07-16 02:26:58.490 ,3,0,0.,24.0,0.,24.0,0.,24.0,0.,24.0